Time,TemperatureF,DewpointF,PressureIn,WindDirection,WindDirectionDegrees,WindSpeedMPH,WindSpeedGustMPH,Humidity,HourlyPrecipIn,Conditions,Clouds,dailyrainin,SoftwareType,DateUTC
2013-03-24 00:00:00,67.6,63.3,29.84,ESE,117,7.0,7.0,86,0.00,,,0.00,Wunderground v.1.15,2013-03-24 04:00:00,
2013-03-24 00:10:00,67.4,63.4,29.83,SSE,148,7.0,12.0,87,0.00,,,0.00,Wunderground v.1.15,2013-03-24 04:10:00,
2013-03-24 00:20:00,67.4,63.4,29.82,ESE,120,8.0,11.0,87,0.00,,,0.00,Wunderground v.1.15,2013-03-24 04:20:00,
2013-03-24 00:30:00,67.4,63.4,29.83,ESE,117,7.0,7.0,87,0.00,,,0.00,Wunderground v.1.15,2013-03-24 04:30:00,
2013-03-24 00:40:00,67.3,63.6,29.82,ESE,108,8.0,8.0,88,0.00,,,0.00,Wunderground v.1.15,2013-03-24 04:40:00,
2013-03-24 00:50:00,67.3,63.6,29.82,ESE,109,7.0,7.0,88,0.00,,,0.00,Wunderground v.1.15,2013-03-24 04:50:00,
2013-03-24 01:00:00,67.4,63.7,29.81,ESE,113,8.0,10.0,88,0.00,,,0.00,Wunderground v.1.15,2013-03-24 05:00:00,
2013-03-24 01:10:00,67.6,63.9,29.81,ESE,118,10.0,10.0,88,0.00,,,0.00,Wunderground v.1.15,2013-03-24 05:10:00,
2013-03-24 01:20:00,67.7,64.0,29.81,East,85,8.0,8.0,88,0.00,,,0.00,Wunderground v.1.15,2013-03-24 05:20:00,
2013-03-24 01:30:00,67.9,64.2,29.80,SE,134,10.0,10.0,88,0.00,,,0.00,Wunderground v.1.15,2013-03-24 05:30:00,
2013-03-24 01:40:00,67.9,64.2,29.80,ESE,105,8.0,10.0,88,0.00,,,0.00,Wunderground v.1.15,2013-03-24 05:40:00,
2013-03-24 01:50:00,68.0,64.3,29.79,ESE,107,8.0,8.0,88,0.00,,,0.00,Wunderground v.1.15,2013-03-24 05:50:00,
2013-03-24 02:00:00,68.0,64.6,29.79,SE,125,10.0,10.0,89,0.00,,,0.00,Wunderground v.1.15,2013-03-24 06:00:00,
2013-03-24 02:10:00,68.0,64.3,29.78,ESE,123,7.0,9.0,88,0.00,,,0.00,Wunderground v.1.15,2013-03-24 06:10:00,
2013-03-24 02:20:00,67.9,64.5,29.78,East,97,8.0,8.0,89,0.00,,,0.00,Wunderground v.1.15,2013-03-24 06:20:00,
2013-03-24 02:30:00,67.8,64.4,29.78,SE,126,7.0,7.0,89,0.00,,,0.00,Wunderground v.1.15,2013-03-24 06:30:00,
2013-03-24 02:40:00,67.7,64.7,29.77,SE,134,6.0,9.0,90,0.00,,,0.00,Wunderground v.1.15,2013-03-24 06:40:00,
2013-03-24 02:50:00,67.7,64.7,29.77,SE,136,7.0,7.0,90,0.00,,,0.00,Wunderground v.1.15,2013-03-24 06:50:00,
2013-03-24 03:00:00,67.6,64.6,29.76,SE,140,7.0,7.0,90,0.00,,,0.00,Wunderground v.1.15,2013-03-24 07:00:00,
2013-03-24 03:10:00,67.6,64.6,29.76,SSE,150,7.0,7.0,90,0.00,,,0.00,Wunderground v.1.15,2013-03-24 07:10:00,
2013-03-24 03:20:00,67.5,64.5,29.76,SE,132,6.0,6.0,90,0.00,,,0.00,Wunderground v.1.15,2013-03-24 07:20:00,
2013-03-24 03:30:00,67.5,64.8,29.75,SE,136,5.0,9.0,91,0.00,,,0.00,Wunderground v.1.15,2013-03-24 07:30:00,
2013-03-24 03:40:00,67.6,64.9,29.75,SE,136,5.0,9.0,91,0.00,,,0.00,Wunderground v.1.15,2013-03-24 07:40:00,
2013-03-24 03:50:00,67.6,64.9,29.74,SE,140,5.0,9.0,91,0.00,,,0.00,Wunderground v.1.15,2013-03-24 07:50:00,
2013-03-24 04:00:00,67.6,64.9,29.73,SE,144,6.0,6.0,91,0.00,,,0.00,Wunderground v.1.15,2013-03-24 08:00:00,
2013-03-24 04:10:00,67.5,64.8,29.72,SE,134,7.0,9.0,91,0.00,,,0.00,Wunderground v.1.15,2013-03-24 08:10:00,
2013-03-24 04:20:00,67.5,65.1,29.71,SE,140,7.0,7.0,92,0.00,,,0.00,Wunderground v.1.15,2013-03-24 08:20:00,
2013-03-24 04:30:00,67.5,65.1,29.71,SE,141,8.0,10.0,92,0.00,,,0.00,Wunderground v.1.15,2013-03-24 08:30:00,
2013-03-24 04:40:00,67.5,65.1,29.71,SE,128,8.0,9.0,92,0.00,,,0.00,Wunderground v.1.15,2013-03-24 08:40:00,
2013-03-24 04:50:00,67.5,65.4,29.71,SE,136,7.0,7.0,93,0.00,,,0.00,Wunderground v.1.15,2013-03-24 08:50:00,
2013-03-24 05:00:00,67.5,65.4,29.71,SSE,148,6.0,10.0,93,0.00,,,0.00,Wunderground v.1.15,2013-03-24 09:00:00,
2013-03-24 05:10:00,67.6,65.5,29.70,SSE,161,6.0,6.0,93,0.00,,,0.00,Wunderground v.1.15,2013-03-24 09:10:00,
2013-03-24 05:20:00,67.9,65.8,29.70,SSE,157,5.0,9.0,93,0.00,,,0.00,Wunderground v.1.15,2013-03-24 09:20:00,
2013-03-24 05:30:00,67.9,66.1,29.70,SE,146,5.0,9.0,94,0.00,,,0.00,Wunderground v.1.15,2013-03-24 09:30:00,
2013-03-24 05:40:00,68.1,66.3,29.70,SSE,165,5.0,9.0,94,0.00,,,0.00,Wunderground v.1.15,2013-03-24 09:40:00,
2013-03-24 05:50:00,68.3,66.5,29.69,SE,144,6.0,9.0,94,0.00,,,0.00,Wunderground v.1.15,2013-03-24 09:50:00,
2013-03-24 06:00:00,68.5,66.7,29.69,SSE,161,5.0,5.0,94,0.00,,,0.00,Wunderground v.1.15,2013-03-24 10:00:00,
2013-03-24 06:10:00,68.6,66.8,29.68,SE,145,5.0,9.0,94,0.00,,,0.00,Wunderground v.1.15,2013-03-24 10:10:00,
2013-03-24 06:20:00,68.7,66.9,29.68,SE,141,6.0,9.0,94,0.00,,,0.00,Wunderground v.1.15,2013-03-24 10:20:00,
2013-03-24 06:30:00,68.8,67.0,29.68,South,173,6.0,9.0,94,0.00,,,0.00,Wunderground v.1.15,2013-03-24 10:30:00,
2013-03-24 06:40:00,68.9,67.1,29.67,SSE,153,6.0,6.0,94,0.00,,,0.00,Wunderground v.1.15,2013-03-24 10:40:00,
2013-03-24 06:50:00,69.0,67.2,29.67,SSE,148,7.0,9.0,94,0.00,,,0.00,Wunderground v.1.15,2013-03-24 10:50:00,
2013-03-24 07:00:00,69.2,67.4,29.67,SSE,148,7.0,7.0,94,0.00,,,0.00,Wunderground v.1.15,2013-03-24 11:00:00,
2013-03-24 07:10:00,69.5,67.4,29.67,SSE,161,7.0,12.0,93,0.00,,,0.00,Wunderground v.1.15,2013-03-24 11:10:00,
2013-03-24 07:20:00,69.8,67.7,29.67,South,173,9.0,9.0,93,0.00,,,0.00,Wunderground v.1.15,2013-03-24 11:20:00,
2013-03-24 07:30:00,70.2,67.8,29.68,South,181,9.0,9.0,92,0.00,,,0.00,Wunderground v.1.15,2013-03-24 11:30:00,
2013-03-24 07:40:00,70.4,67.6,29.68,South,175,9.0,9.0,91,0.00,,,0.00,Wunderground v.1.15,2013-03-24 11:40:00,
2013-03-24 07:50:00,70.5,67.7,29.68,South,173,7.0,7.0,91,0.00,,,0.00,Wunderground v.1.15,2013-03-24 11:50:00,
2013-03-24 08:00:00,70.7,67.9,29.68,South,184,8.0,8.0,91,0.00,,,0.00,Wunderground v.1.15,2013-03-24 12:00:00,
2013-03-24 08:10:00,70.8,67.7,29.68,SSE,164,7.0,7.0,90,0.00,,,0.00,Wunderground v.1.15,2013-03-24 12:10:00,
2013-03-24 08:20:00,71.0,67.9,29.68,South,176,5.0,9.0,90,0.00,,,0.00,Wunderground v.1.15,2013-03-24 12:20:00,
2013-03-24 08:30:00,71.4,68.3,29.69,SSW,196,8.0,9.0,90,0.00,,,0.00,Wunderground v.1.15,2013-03-24 12:30:00,
2013-03-24 08:40:00,71.8,68.7,29.69,SSW,194,8.0,8.0,90,0.00,,,0.00,Wunderground v.1.15,2013-03-24 12:40:00,
2013-03-24 08:50:00,72.2,68.8,29.70,SSW,201,8.0,10.0,89,0.00,,,0.00,Wunderground v.1.15,2013-03-24 12:50:00,
2013-03-24 09:00:00,72.8,69.0,29.70,SSW,193,9.0,11.0,88,0.00,,,0.00,Wunderground v.1.15,2013-03-24 13:00:00,
2013-03-24 09:10:00,73.6,69.5,29.71,SW,225,11.0,12.0,87,0.00,,,0.00,Wunderground v.1.15,2013-03-24 13:10:00,
2013-03-24 09:20:00,74.2,69.7,29.71,SW,216,11.0,11.0,86,0.00,,,0.00,Wunderground v.1.15,2013-03-24 13:20:00,
2013-03-24 09:30:00,74.4,69.6,29.71,SSW,196,13.0,13.0,85,0.00,,,0.00,Wunderground v.1.15,2013-03-24 13:30:00,
2013-03-24 09:40:00,74.6,69.8,29.70,SSW,207,10.0,10.0,85,0.00,,,0.00,Wunderground v.1.15,2013-03-24 13:40:00,
2013-03-24 09:50:00,74.9,69.7,29.70,South,186,14.0,18.0,84,0.00,,,0.01,Wunderground v.1.15,2013-03-24 13:50:00,
2013-03-24 10:00:00,75.2,69.7,29.70,SSW,192,14.0,14.0,83,0.00,,,0.01,Wunderground v.1.15,2013-03-24 14:00:00,
2013-03-24 10:10:00,75.3,69.8,29.70,SSW,213,14.0,14.0,83,0.00,,,0.01,Wunderground v.1.15,2013-03-24 14:10:00,
2013-03-24 10:20:00,75.3,69.8,29.70,SW,217,14.0,14.0,83,0.00,,,0.01,Wunderground v.1.15,2013-03-24 14:20:00,
2013-03-24 10:30:00,75.3,69.8,29.70,SW,225,13.0,13.0,83,0.00,,,0.01,Wunderground v.1.15,2013-03-24 14:30:00,
2013-03-24 10:40:00,75.5,70.0,29.70,SW,222,14.0,14.0,83,0.00,,,0.01,Wunderground v.1.15,2013-03-24 14:40:00,
2013-03-24 10:50:00,76.1,70.2,29.69,SSW,200,14.0,14.0,82,0.00,,,0.01,Wunderground v.1.15,2013-03-24 14:50:00,
2013-03-24 11:00:00,77.0,70.4,29.69,SW,229,15.0,23.0,80,0.00,,,0.01,Wunderground v.1.15,2013-03-24 15:00:00,
2013-03-24 11:10:00,77.8,70.4,29.67,South,190,16.0,29.0,78,0.00,,,0.01,Wunderground v.1.15,2013-03-24 15:10:00,
2013-03-24 11:20:00,78.5,70.3,29.69,SW,226,21.0,21.0,76,0.00,,,0.01,Wunderground v.1.15,2013-03-24 15:20:00,
2013-03-24 11:30:00,79.1,70.5,29.68,SW,229,19.0,19.0,75,0.00,,,0.01,Wunderground v.1.15,2013-03-24 15:30:00,
2013-03-24 11:40:00,79.1,70.1,29.68,SW,224,21.0,27.0,74,0.00,,,0.01,Wunderground v.1.15,2013-03-24 15:40:00,
2013-03-24 11:50:00,78.9,69.9,29.68,SSW,192,22.0,22.0,74,0.00,,,0.01,Wunderground v.1.15,2013-03-24 15:50:00,
2013-03-24 12:00:00,78.8,70.2,29.68,SW,223,19.0,23.0,75,0.00,,,0.01,Wunderground v.1.15,2013-03-24 16:00:00,
2013-03-24 12:10:00,78.4,69.8,29.69,SW,229,22.0,32.0,75,0.00,,,0.01,Wunderground v.1.15,2013-03-24 16:10:00,
2013-03-24 12:20:00,78.1,69.9,29.68,SW,226,20.0,20.0,76,0.00,,,0.01,Wunderground v.1.15,2013-03-24 16:20:00,
2013-03-24 12:30:00,78.0,70.2,29.69,WSW,238,18.0,21.0,77,0.00,,,0.01,Wunderground v.1.15,2013-03-24 16:30:00,
2013-03-24 12:40:00,77.6,70.2,29.69,SW,226,15.0,17.0,78,0.00,,,0.01,Wunderground v.1.15,2013-03-24 16:40:00,
2013-03-24 12:50:00,77.5,70.1,29.68,SW,235,14.0,14.0,78,0.00,,,0.01,Wunderground v.1.15,2013-03-24 16:50:00,
2013-03-24 13:00:00,77.0,70.4,29.68,SW,235,15.0,15.0,80,0.00,,,0.01,Wunderground v.1.15,2013-03-24 17:00:00,
2013-03-24 13:10:00,76.3,70.8,29.67,SW,230,14.0,22.0,83,0.00,,,0.01,Wunderground v.1.15,2013-03-24 17:10:00,
2013-03-24 13:20:00,75.8,71.0,29.66,SSW,210,13.0,17.0,85,0.00,,,0.01,Wunderground v.1.15,2013-03-24 17:20:00,
2013-03-24 13:30:00,75.3,70.8,29.66,WSW,253,12.0,12.0,86,0.00,,,0.01,Wunderground v.1.15,2013-03-24 17:30:00,
2013-03-24 13:40:00,74.9,70.8,29.66,SW,228,11.0,15.0,87,0.00,,,0.01,Wunderground v.1.15,2013-03-24 17:40:00,
2013-03-24 13:50:00,74.7,70.6,29.63,SSW,199,12.0,21.0,87,0.00,,,0.01,Wunderground v.1.15,2013-03-24 17:50:00,
2013-03-24 14:00:00,73.4,68.6,29.66,SW,229,13.0,13.0,85,0.00,,,0.01,Wunderground v.1.15,2013-03-24 18:00:00,
2013-03-24 14:10:00,73.0,69.2,29.68,SW,215,10.0,10.0,88,0.00,,,0.01,Wunderground v.1.15,2013-03-24 18:10:00,
2013-03-24 14:20:00,73.0,69.9,29.59,SE,126,10.0,14.0,90,0.00,,,0.01,Wunderground v.1.15,2013-03-24 18:20:00,
2013-03-24 14:30:00,73.0,70.2,29.65,SW,221,15.0,15.0,91,0.00,,,0.01,Wunderground v.1.15,2013-03-24 18:30:00,
2013-03-24 14:40:00,72.5,69.4,29.64,SW,227,14.0,18.0,90,0.00,,,0.01,Wunderground v.1.15,2013-03-24 18:40:00,
2013-03-24 14:50:00,71.4,68.0,29.62,WSW,250,15.0,27.0,89,0.00,,,0.01,Wunderground v.1.15,2013-03-24 18:50:00,
2013-03-24 15:00:00,70.5,66.1,29.64,SW,217,13.0,25.0,86,0.00,,,0.01,Wunderground v.1.15,2013-03-24 19:00:00,
2013-03-24 15:10:00,69.0,64.6,29.65,SW,219,17.0,18.0,86,0.00,,,0.01,Wunderground v.1.15,2013-03-24 19:10:00,
2013-03-24 15:20:00,68.2,63.9,29.64,WSW,249,14.0,14.0,86,0.00,,,0.01,Wunderground v.1.15,2013-03-24 19:20:00,
2013-03-24 15:30:00,68.2,64.2,29.64,SW,227,11.0,15.0,87,0.00,,,0.01,Wunderground v.1.15,2013-03-24 19:30:00,
2013-03-24 15:40:00,68.8,64.4,29.64,SW,225,12.0,12.0,86,0.00,,,0.01,Wunderground v.1.15,2013-03-24 19:40:00,
2013-03-24 15:50:00,69.9,65.2,29.64,WSW,238,12.0,12.0,85,0.00,,,0.01,Wunderground v.1.15,2013-03-24 19:50:00,
2013-03-24 16:00:00,70.7,65.6,29.63,WSW,248,13.0,13.0,84,0.00,,,0.01,Wunderground v.1.15,2013-03-24 20:00:00,
2013-03-24 16:10:00,71.2,66.5,29.64,SW,235,12.0,12.0,85,0.00,,,0.01,Wunderground v.1.15,2013-03-24 20:10:00,
2013-03-24 16:20:00,72.0,67.6,29.63,SW,223,11.0,11.0,86,0.00,,,0.01,Wunderground v.1.15,2013-03-24 20:20:00,
2013-03-24 16:30:00,73.0,68.6,29.63,SW,227,10.0,16.0,86,0.00,,,0.01,Wunderground v.1.15,2013-03-24 20:30:00,
2013-03-24 16:40:00,73.8,69.3,29.62,WSW,244,9.0,9.0,86,0.00,,,0.01,Wunderground v.1.15,2013-03-24 20:40:00,
2013-03-24 16:50:00,74.4,69.9,29.62,West,267,9.0,9.0,86,0.00,,,0.01,Wunderground v.1.15,2013-03-24 20:50:00,
2013-03-24 17:00:00,75.2,70.7,29.62,WSW,244,9.0,9.0,86,0.00,,,0.01,Wunderground v.1.15,2013-03-24 21:00:00,
2013-03-24 17:10:00,75.8,70.6,29.62,West,277,12.0,13.0,84,0.00,,,0.01,Wunderground v.1.15,2013-03-24 21:10:00,
2013-03-24 17:20:00,75.8,71.0,29.62,WSW,257,11.0,16.0,85,0.00,,,0.01,Wunderground v.1.15,2013-03-24 21:20:00,
2013-03-24 17:30:00,75.9,70.7,29.61,WSW,252,12.0,12.0,84,0.00,,,0.01,Wunderground v.1.15,2013-03-24 21:30:00,
2013-03-24 17:40:00,76.2,70.7,29.62,WSW,257,11.0,13.0,83,0.00,,,0.01,Wunderground v.1.15,2013-03-24 21:40:00,
2013-03-24 17:50:00,76.3,70.8,29.62,WSW,246,13.0,13.0,83,0.00,,,0.01,Wunderground v.1.15,2013-03-24 21:50:00,
2013-03-24 18:00:00,76.2,70.7,29.61,WSW,254,13.0,13.0,83,0.00,,,0.01,Wunderground v.1.15,2013-03-24 22:00:00,
2013-03-24 18:10:00,76.1,70.6,29.62,WSW,256,12.0,12.0,83,0.00,,,0.01,Wunderground v.1.15,2013-03-24 22:10:00,
2013-03-24 18:20:00,75.5,70.3,29.62,WSW,253,11.0,11.0,84,0.00,,,0.01,Wunderground v.1.15,2013-03-24 22:20:00,
2013-03-24 18:30:00,75.3,70.1,29.63,WSW,239,10.0,17.0,84,0.00,,,0.01,Wunderground v.1.15,2013-03-24 22:30:00,
2013-03-24 18:40:00,75.2,69.3,29.63,West,262,14.0,14.0,82,0.00,,,0.01,Wunderground v.1.15,2013-03-24 22:40:00,
2013-03-24 18:50:00,74.9,69.4,29.63,WSW,253,12.0,12.0,83,0.00,,,0.01,Wunderground v.1.15,2013-03-24 22:50:00,
2013-03-24 19:00:00,74.7,68.8,29.63,WSW,242,11.0,11.0,82,0.00,,,0.01,Wunderground v.1.15,2013-03-24 23:00:00,
2013-03-24 19:10:00,74.4,68.9,29.63,SW,225,9.0,9.0,83,0.00,,,0.01,Wunderground v.1.15,2013-03-24 23:10:00,
2013-03-24 19:20:00,73.9,68.8,29.64,WSW,238,11.0,11.0,84,0.00,,,0.01,Wunderground v.1.15,2013-03-24 23:20:00,
2013-03-24 19:30:00,73.8,68.3,29.65,SW,234,11.0,16.0,83,0.00,,,0.01,Wunderground v.1.15,2013-03-24 23:30:00,
2013-03-24 19:40:00,73.7,68.2,29.65,West,261,11.0,11.0,83,0.00,,,0.01,Wunderground v.1.15,2013-03-24 23:40:00,
2013-03-24 19:50:00,73.5,68.0,29.65,WSW,243,11.0,12.0,83,0.00,,,0.01,Wunderground v.1.15,2013-03-24 23:50:00,
2013-03-24 20:00:00,73.2,68.1,29.66,WSW,257,11.0,11.0,84,0.00,,,0.01,Wunderground v.1.15,2013-03-25 00:00:00,
2013-03-24 20:10:00,72.9,68.1,29.66,WSW,241,8.0,12.0,85,0.00,,,0.01,Wunderground v.1.15,2013-03-25 00:10:00,
2013-03-24 20:20:00,72.8,67.3,29.66,WSW,242,11.0,14.0,83,0.00,,,0.01,Wunderground v.1.15,2013-03-25 00:20:00,
2013-03-24 20:30:00,72.7,67.2,29.67,SW,225,12.0,16.0,83,0.00,,,0.01,Wunderground v.1.15,2013-03-25 00:30:00,
2013-03-24 20:40:00,72.3,67.5,29.68,West,267,11.0,11.0,85,0.00,,,0.01,Wunderground v.1.15,2013-03-25 00:40:00,
2013-03-24 20:50:00,72.0,66.9,29.67,WSW,257,11.0,13.0,84,0.00,,,0.01,Wunderground v.1.15,2013-03-25 00:50:00,
2013-03-24 21:00:00,71.8,66.7,29.68,WSW,246,11.0,14.0,84,0.00,,,0.01,Wunderground v.1.15,2013-03-25 01:00:00,
2013-03-24 21:10:00,71.5,66.8,29.68,WSW,250,11.0,14.0,85,0.00,,,0.01,Wunderground v.1.15,2013-03-25 01:10:00,
2013-03-24 21:20:00,71.2,66.5,29.69,WSW,238,12.0,15.0,85,0.00,,,0.01,Wunderground v.1.15,2013-03-25 01:20:00,
2013-03-24 21:30:00,70.9,66.5,29.69,West,262,9.0,9.0,86,0.00,,,0.01,Wunderground v.1.15,2013-03-25 01:30:00,
2013-03-24 21:40:00,70.5,65.8,29.69,WSW,249,10.0,13.0,85,0.00,,,0.01,Wunderground v.1.15,2013-03-25 01:40:00,
2013-03-24 21:50:00,70.3,65.6,29.70,West,272,9.0,13.0,85,0.00,,,0.01,Wunderground v.1.15,2013-03-25 01:50:00,
2013-03-24 22:00:00,70.1,65.4,29.70,WSW,248,9.0,10.0,85,0.00,,,0.01,Wunderground v.1.15,2013-03-25 02:00:00,
2013-03-24 22:10:00,69.7,65.0,29.70,WSW,249,10.0,10.0,85,0.00,,,0.01,Wunderground v.1.15,2013-03-25 02:10:00,
2013-03-24 22:20:00,69.3,64.9,29.70,WSW,250,9.0,12.0,86,0.00,,,0.01,Wunderground v.1.15,2013-03-25 02:20:00,
2013-03-24 22:30:00,69.1,65.1,29.70,SW,236,8.0,9.0,87,0.00,,,0.01,Wunderground v.1.15,2013-03-25 02:30:00,
2013-03-24 22:40:00,68.6,64.6,29.70,SW,232,10.0,12.0,87,0.00,,,0.01,Wunderground v.1.15,2013-03-25 02:40:00,
2013-03-24 22:50:00,68.2,64.2,29.71,WSW,242,10.0,17.0,87,0.00,,,0.01,Wunderground v.1.15,2013-03-25 02:50:00,
2013-03-24 23:00:00,68.0,64.3,29.70,West,262,9.0,10.0,88,0.00,,,0.01,Wunderground v.1.15,2013-03-25 03:00:00,
2013-03-24 23:10:00,67.8,64.1,29.70,SW,226,7.0,9.0,88,0.00,,,0.01,Wunderground v.1.15,2013-03-25 03:10:00,
2013-03-24 23:20:00,67.5,64.1,29.70,SW,229,7.0,7.0,89,0.00,,,0.01,Wunderground v.1.15,2013-03-25 03:20:00,
2013-03-24 23:30:00,67.2,63.8,29.71,SSW,211,7.0,7.0,89,0.00,,,0.01,Wunderground v.1.15,2013-03-25 03:30:00,
2013-03-24 23:40:00,66.9,63.6,29.70,SW,216,7.0,7.0,89,0.00,,,0.01,Wunderground v.1.15,2013-03-25 03:40:00,
2013-03-24 23:50:00,66.7,63.7,29.70,SSW,207,7.0,7.0,90,0.00,,,0.01,Wunderground v.1.15,2013-03-25 03:50:00,